Regional Weather Roundup
Issued by NWS

Home | Current Version | Previous Version | Graphics & Text | Print | Product List | Glossary On
Versions: 1 2 3 4 5 6 7 8 9 10 11 12 13 14 15 16 17 18 19 20 21 22 23 24 25 26 27 28 29 30 31 32 33 34 35 36 37 38 39 40 41 42 43 44 45 46 47 48 49 50
000
ASUS43 KMKX 031821
RWRWI

WISCONSIN REGIONAL WEATHER ROUNDUP
NATIONAL WEATHER SERVICE MILWAUKEE/SULLIVAN WI
100 PM CDT TUE MAY 03 2016

NOTE: "FAIR" INDICATES FEW OR NO CLOUDS BELOW 12,000 FEET WITH NO
SIGNIFICANT WEATHER AND/OR OBSTRUCTIONS TO VISIBILITY.

WIZ001-002-006>008-014>016-023>028-031900-
NORTHWEST WISCONSIN

CITY           SKY/WX    TMP DP  RH WIND       PRES   REMARKS
SUPERIOR ARPT  CLOUDY    66  37  34 W16G30    29.69S
6HR MIN TEMP:  46; 6HR MAX TEMP:  68;

ASHLAND        CLOUDY    59  41  51 W12G23    29.68F
6HR MIN TEMP:  51; 6HR MAX TEMP:  62;

HAYWARD        LGT RAIN  62  32  32 W12G21    29.74F
6HR MIN TEMP:  42; 6HR MAX TEMP:  65; 6HR PCP: TRACE;

SIREN          CLOUDY    65  33  29 W12G28    29.75F
6HR MIN TEMP:  50; 6HR MAX TEMP:  68;

CUMBERLAND     CLOUDY    63  32  31 W23G30    29.76F
RICE LAKE      CLOUDY    66  34  30 W15G22    29.78F
6HR MIN TEMP:  46; 6HR MAX TEMP:  67;

CHETEK         CLOUDY    65  38  36 W15G21    29.77F
6HR MIN TEMP:  44; 6HR MAX TEMP:  67;

LADYSMITH      CLOUDY    65  36  34 W15G25    29.77F
6HR MIN TEMP:  38; 6HR MAX TEMP:  66;

EAU CLAIRE     CLOUDY    69  31  24 W23G29    29.79F
6HR MIN TEMP:  44; 6HR MAX TEMP:  69;

MENOMONIE      PTSUNNY   69  36  29 W16G24    29.81F
6HR MIN TEMP:  40; 6HR MAX TEMP:  69;

NEW RICHMOND   MOSUNNY   67  35  30 W21G31    29.80F
6HR MIN TEMP:  43; 6HR MAX TEMP:  68;

OSCEOLA        PTSUNNY   69  36  30 W22G29    29.81F
6HR MIN TEMP:  42; 6HR MAX TEMP:  70;

$$

WIZ003>005-009-010-017-018-031900-
NORTH CENTRAL WISCONSIN

CITY           SKY/WX    TMP DP  RH WIND       PRES   REMARKS
MANITOWISH WTR DRIZZLE   56  37  49 NW9G25    29.73F
6HR MIN TEMP:  43; 6HR MAX TEMP:  60;

ARBOR VITAE    CLOUDY    60  33  36 NW14G21   29.72F
6HR MIN TEMP:  46; 6HR MAX TEMP:  62;

WOODRUFF       CLOUDY    60  33  36 NW14G21   29.72F
6HR MIN TEMP:  46; 6HR MAX TEMP:  62;

RHINELANDER    LGT RAIN  62  33  33 W21G28    29.73F
6HR MIN TEMP:  42; 6HR MAX TEMP:  64; 6HR PCP: TRACE;

EAGLE RIVER    CLOUDY    60  31  33 W10G22    29.72F
LAND O LAKES   DRIZZLE   56  37  49 W9G23     29.73F
6HR MIN TEMP:  47; 6HR MAX TEMP:  60;

PHILLIPS       PTSUNNY   63  35  34 W12       29.73F
6HR MIN TEMP:  35; 6HR MAX TEMP:  63;

TOMAHAWK       CLOUDY    64  33  30 W15G21    29.74F
6HR MIN TEMP:  36; 6HR MAX TEMP:  64;

MEDFORD        CLOUDY    63  37  38 W20G28    29.76F
6HR MIN TEMP:  45; 6HR MAX TEMP:  64;

MERRILL        CLOUDY    64  34  32 W20G26    29.75F
$$

WIZ029-030-035-036-043>047-031900-
CENTRAL WISCONSIN

CITY           SKY/WX    TMP DP  RH WIND       PRES   REMARKS
WAUSAU         CLOUDY    70  33  25 W20G30    29.75F
6HR MIN TEMP:  49; 6HR MAX TEMP:  70;

MOSINEE        PTSUNNY   64  32  29 W20G25    29.79F
MARSHFIELD     PTSUNNY   67  31  26 W18G25    29.78F
6HR MIN TEMP:  46; 6HR MAX TEMP:  69;

STEVENS POINT  MOSUNNY   65  32  28 W9G23     29.79F
6HR MIN TEMP:  36; 6HR MAX TEMP:  65;

WAUPACA        CLOUDY    71  28  20 W15G24    29.79F
6HR MIN TEMP:  46; 6HR MAX TEMP:  71;

WAUTOMA        PTSUNNY   67  33  28 W13G21      N/A
WISC RAPIDS    MOSUNNY   68  27  21 W10       29.80F
6HR MIN TEMP:  40; 6HR MAX TEMP:  70;

CAMP DOUGLAS   PTSUNNY   66  37  34 W17G24    29.82F
$$

WIZ011>013-019>022-031-037>040-048>050-031900-
NORTHEAST WISCONSIN

CITY           SKY/WX    TMP DP  RH WIND       PRES   REMARKS
ANTIGO         CLOUDY    63  34  34 W17G23    29.74F
6HR MIN TEMP:  42; 6HR MAX TEMP:  63;

SHAWANO        MOSUNNY   70  31  23 W13       29.75F
6HR MIN TEMP:  46; 6HR MAX TEMP:  71;

OCONTO         PTSUNNY   70  35  27 W15G23    29.72F
6HR MIN TEMP:  46; 6HR MAX TEMP:  70;

STURGEON BAY   PTSUNNY   66  36  32 SW17G25   29.75F
6HR MIN TEMP:  48; 6HR MAX TEMP:  66;

GREEN BAY      MOSUNNY   70  36  28 W17G25    29.77F
6HR MIN TEMP:  46; 6HR MAX TEMP:  70;

MANITOWOC      MOSUNNY   68  35  29 W16G33    29.79F
6HR MIN TEMP:  49; 6HR MAX TEMP:  68;

APPLETON       PTSUNNY   66  27  22 W15G24    29.78F
CLINTONVILLE   CLOUDY    68  32  26 W9G22     29.76F
OSHKOSH        PTSUNNY   67  34  29 W9        29.80F
6HR MIN TEMP:  49; 6HR MAX TEMP:  67;

$$

WIZ032>034-041-042-053>061-031900-
SOUTHWEST WISCONSIN

CITY           SKY/WX    TMP DP  RH WIND       PRES   REMARKS
LA CROSSE      CLOUDY    68  36  30 W14       29.84F
6HR MIN TEMP:  48; 6HR MAX TEMP:  70;

SPARTA         PTSUNNY   69  34  27 W15G25    29.83F
6HR MIN TEMP:  35; 6HR MAX TEMP:  69;

VIROQUA        CLOUDY    63  35  34 W15       29.87F
6HR MIN TEMP:  44; 6HR MAX TEMP:  66;

BOSCOBEL       LGT RAIN  69  35  28 VRB7G20   29.88F
6HR MIN TEMP:  42; 6HR MAX TEMP:  70; 6HR PCP: TRACE;

PRAIRIE DU CHI PTSUNNY   66  33  30 W9G20     29.88F
6HR MIN TEMP:  44; 6HR MAX TEMP:  67;

PLATTEVILLE    MOSUNNY   65  36  34 W16G26    29.90F
$$

WIZ056-057-062-063-064-067-068-031900-
SOUTH CENTRAL WISCONSIN

CITY           SKY/WX    TMP DP  RH WIND       PRES   REMARKS
REEDSBURG      PTSUNNY   64  37  37 W13       29.84F
6HR MIN TEMP:  39; 6HR MAX TEMP:  66;

BARABOO/DELLS  PTSUNNY   66  32  28 W16G23    29.84F
6HR MIN TEMP:  46; 6HR MAX TEMP:  67;

LONE ROCK      PTSUNNY   68  36  30 W18G25    29.86F
6HR MIN TEMP:  40; 6HR MAX TEMP:  68;

MINERAL POINT  PTSUNNY   68  34  28 W18G24    29.88F
MADISON        PTSUNNY   67  36  31 W8G20     29.85F
6HR MIN TEMP:  41; 6HR MAX TEMP:  67;

MIDDLETON      PTSUNNY   65  35  33 W15G23    29.86F
6HR MIN TEMP:  47; 6HR MAX TEMP:  67;

WATERTOWN      PTSUNNY   64  36  35 W16       29.85F
6HR MIN TEMP:  41; 6HR MAX TEMP:  67;

MONROE         MOSUNNY   64  34  32 SW18G25   29.89F
JANESVILLE     PTSUNNY   66  34  30 W12G18    29.88F
$$

WIZ051-052-058>065-066-070>072-031900-
SOUTHEAST WISCONSIN

CITY           SKY/WX    TMP DP  RH WIND       PRES   REMARKS
MILWAUKEE      PTSUNNY   64  32  30 W13G22    29.85F
6HR MIN TEMP:  49; 6HR MAX TEMP:  67;

WAUKESHA       PTSUNNY   61  36  39 NW12      29.86F
MILWAUKEE/TIMM PTSUNNY   63  30  29 W13       29.86F
RACINE         CLOUDY    64  34  32 W10       29.88F
6HR MIN TEMP:  49; 6HR MAX TEMP:  66;

BURLINGTON     MOSUNNY   65  33  30 W9G22     29.87F
6HR MIN TEMP:  40; 6HR MAX TEMP:  66;

KENOSHA        CLOUDY    64  38  38 W14       29.87F
6HR MIN TEMP:  44; 6HR MAX TEMP:  66;

FOND DU LAC    PTSUNNY   68  34  28 W17       29.81F
6HR MIN TEMP:  46; 6HR MAX TEMP:  69;

SHEBOYGAN      SUNNY     68  34  28 W12G22    29.80F
6HR MIN TEMP:  46; 6HR MAX TEMP:  68;

WEST BEND      CLOUDY    64  32  29 W16G24    29.83F
JUNEAU         MOSUNNY   64  34  33 W12G20    29.84F
6HR MIN TEMP:  40; 6HR MAX TEMP:  65;

$$

LSZ147-162-031900-
LAKE SUPERIOR

STATION/POSITION TIME  TEMP    WIND        PRES    WAVE
                       AIR SEA DIR/SP/G            HT/PER
                 (UTC) (F)     (DEG/KT/KT) (MB)    (FT/S)
W MID LAKE BUOY  1750   42 37  240/ 14/ 17 1004.5F   3/ 5
DEVILS ISLAND    1800   50     270/ 14/ 15 1005.6F
SAXON HARBOR     1700   56     220/ 12/ 23 1005.8
$$

LMZ867-665-643>646-031900-
LAKE MICHIGAN

STATION/POSITION TIME  TEMP    WIND        PRES    WAVE
                       AIR SEA DIR/SP/G            HT/PER
                 (UTC) (F)     (DEG/KT/KT) (MB)    (FT/S)
CHAMBERS ISLAND  1700   60     170/  7/ 13 1007.5F
N MID LAKE BUOY  1750   41 39  180/ 16/ 17 1006.6F   2/ 3
NORTHPORT PIER   1700   61     190/  6/ 12 1007.1F
ALGOMA LAKESHORE 1715          290/ 16/ 21   N/A
KEWAUNEE LAKESHO 1800   67     240/ 10/ C1F1C2F2C3F3C4F4C5F5C6F6C7F7C8M1C9M2Ca!



USA.gov is the U.S. government's official web portal to all federal, state and local government web resources and services.